Simultaneous Nadir Overpasses (SNOs) Predictions

Prediction of SNOs between NOAA-19 and TERRA Satellite Orbit:

Table of predicted SNOs for the next 14.0 days since TLE Epoch: 5/29/2016
Index Date (NOAA-19) Time (NOAA-19) Lat,Lon (NOAA-19) SZA (NOAA-19 ) Date (TERRA) Time (TERRA) Lat,Lon (TERRA) SZA (TERRA ) Distance(km) Time Diff (sec)
1 05/30/2016 11:52:27 -74.06,-172.07 127.78 05/30/2016 11:53:37 -73.96,-170.83 127.81 39.50 70
2 05/30/2016 12:43:20 73.69, -3.87 51.89 05/30/2016 12:43:08 73.68, -3.81 51.88 1.77 12
3 06/01/2016 17:26:25 73.76, -74.77 51.65 06/01/2016 17:27:25 73.77, -74.70 51.67 2.05 60
4 06/01/2016 18:17:24 -73.68, 92.69 128.43 06/01/2016 18:16:54 -73.69, 92.77 128.42 3.17 30
5 06/03/2016 23:00:28 -73.73, 21.83 128.65 06/03/2016 23:01:12 -73.72, 21.76 128.66 2.68 44
6 06/03/2016 23:51:28 73.64,-170.70 51.27 06/03/2016 23:50:39 73.64,-170.77 51.25 2.33 49
7 06/06/2016 04:34:33 73.73, 118.38 51.11 06/06/2016 04:34:56 73.72, 118.31 51.09 2.54 23
8 06/06/2016 05:25:31 -73.65, -74.17 128.97 06/06/2016 05:24:25 -73.65, -74.20 128.99 0.80 66
9 06/08/2016 10:08:35 -73.72,-145.05 129.12 06/08/2016 10:08:42 -73.72,-145.12 129.12 2.20 7
10 06/08/2016 10:59:25 73.08, 23.69 50.32 06/08/2016 10:58:18 73.16, 21.35 50.28 76.20 67
11 06/10/2016 14:51:45 -74.08, 143.32 128.97 06/10/2016 14:52:56 -73.94, 144.29 129.06 33.57 71
12 06/10/2016 15:42:41 73.71, -48.53 50.71 06/10/2016 15:42:26 73.70, -48.61 50.68 3.32 15
